Погода в Опарине

Россия / Кемеровская область (Кузбасс)     55°25′50″N   85°13′56″E
темп.,
°C
ветер,
м/с
пор.,
м/с
влажн.,
%
обл.,
%
осадки,
мм/ч
давл.,
гПа
погр.,
м
19 апреля, пн
пн1901:00+1ююз61299100 4.3 1001482
04:00+2юз61398100 1.5 998716
07:00−6зсз131790100 2.4 1001903
10:00−8сз111683100 0.4 10111144
13:00−7сз91162100 0.4 10181361
16:00−5сз7956100 0.0 10211681
19:00−6сз6864100 0.1 10231360
22:00−7сз5871100 0.1 10241207
20 апреля, вт
вт2001:00−8сз5766100 0.1 10241275
04:00−9зсз5772100 0.1 10251115
07:00−9зсз5772100 0.1 1025953
10:00−7зсз5764100 0.0 10261088
13:00−5зсз575386 0.0 10251303
16:00−3зсз5746100 0.0 10241720
19:00−3зсз464894 0.0 10241519
22:00−5з26665 0.0 1025193
21 апреля, ср
ср2101:00−5юз2269100 0.0 102438
04:00−5ююз3668100 0.0 1023310
07:00−4ююз3661100 0.0 1023943
10:00−3ююз4558100 0.0 10231223
13:00−1ююз3453100 0.1 10231336
16:000ююз0150100 0.1 10241242
19:000св2254100 0.1 10251056
22:00−2св246770 0.0 102896
22 апреля, чт
чт2201:00−3св36889 0.0 1030225
04:00−3ссв36845 0.0 1031250
07:00−4ссв48805 0.0 1034376
10:00−1ссв57565 0.0 10361214
13:00+1ссв5650100 0.1 10371535
16:00+2ссв5652100 0.1 10381649
19:00+1ссв576697 0.4 1040876
22:00−2ссв49815 0.1 1043316
23 апреля, пт
пт2301:00−2св39875 0.1 1043305
04:00−2ссв49895 0.0 1044321
07:00−2св49885 0.0 1045359
10:00+1св686552 0.0 1045978
13:00+4всв7850100 0.0 10431801
16:00+5св6850100 0.0 10421866
19:00+4св586476 0.1 1041368
22:000ссв511835 0.0 1041269